• In Deutschland
  • Länderverzeichnis
  • Für 7 Tage
  • Wassertemperatur
  • Satellitenkarten
  • Wetterkarte
  • Widgets
  • user-avatar
    Anmelden

    Stündliche Wetter Prenzlau

    Heute, 19 Oktober, Donnerstag

    Zeit Temperatur Niederschläge Wind Luftdruck Luftfeuchtigkeit
    00:00 +10°C° 0 mm 2 m/S 759 mmHg 85%
    01:00 +10°C° 0 mm 2 m/S 759 mmHg 90%
    02:00 +10°C° 0 mm 2 m/S 759 mmHg 90%
    03:00 +9°C° 0 mm 2 m/S 759 mmHg 91%
    04:00 +9°C° 0 mm 2 m/S 759 mmHg 92%
    05:00 +9°C° 0 mm 2 m/S 759 mmHg 92%
    06:00 +9°C° 0 mm 2 m/S 759 mmHg 92%
    07:00 +9°C° 0 mm 2 m/S 759 mmHg 92%
    08:00 +10°C° 0 mm 2 m/S 759 mmHg 86%
    09:00 +13°C° 0 mm 2 m/S 759 mmHg 80%
    10:00 +14°C° 0 mm 2 m/S 759 mmHg 74%
    11:00 +15°C° 0 mm 2 m/S 759 mmHg 71%
    12:00 +17°C° 0 mm 2 m/S 759 mmHg 68%
    13:00 +18°C° 0 mm 2 m/S 759 mmHg 65%
    14:00 +17°C° 0 mm 2 m/S 759 mmHg 68%
    15:00 +17°C° 0 mm 2 m/S 759 mmHg 70%
    16:00 +17°C° 0 mm 2 m/S 758 mmHg 73%
    17:00 +16°C° 0 mm 2 m/S 758 mmHg 78%
    18:00 +15°C° 0 mm 2 m/S 759 mmHg 82%
    19:00 +12°C° 0 mm 3 m/S 759 mmHg 87%
    20:00 +12°C° 0 mm 3 m/S 759 mmHg 88%
    21:00 +12°C° 0 mm 3 m/S 759 mmHg 89%
    22:00 +12°C° 0 mm 3 m/S 759 mmHg 90%
    23:00 +12°C° 0 mm 3 m/S 759 mmHg 91%

    Morgen, 20 Oktober, Freitag

    Zeit Temperatur Niederschläge Wind Luftdruck Luftfeuchtigkeit
    00:00 +11°C° 0 mm 3 m/S 759 mmHg 92%
    01:00 +11°C° 0 mm 3 m/S 759 mmHg 92%
    02:00 +11°C° 0 mm 3 m/S 759 mmHg 93%
    03:00 +11°C° 0 mm 3 m/S 758 mmHg 93%
    04:00 +12°C° 0 mm 2 m/S 758 mmHg 93%
    05:00 +12°C° 0 mm 2 m/S 758 mmHg 93%
    06:00 +10°C° 0 mm 2 m/S 758 mmHg 92%
    07:00 +10°C° 0 mm 2 m/S 758 mmHg 92%
    08:00 +12°C° 0 mm 3 m/S 759 mmHg 85%
    09:00 +13°C° 0 mm 3 m/S 759 mmHg 79%
    10:00 +16°C° 0 mm 3 m/S 759 mmHg 72%
    11:00 +17°C° 0 mm 3 m/S 759 mmHg 69%
    12:00 +18°C° 0 mm 3 m/S 759 mmHg 65%
    13:00 +19°C° 0 mm 2 m/S 759 mmHg 62%
    14:00 +19°C° 0,1 mm 2 m/S 759 mmHg 66%
    15:00 +18°C° 0,1 mm 2 m/S 759 mmHg 70%
    16:00 +18°C° 0,1 mm 1 m/S 759 mmHg 74%
    17:00 +18°C° 0,6 mm 1 m/S 759 mmHg 79%
    18:00 +16°C° 0,6 mm 1 m/S 759 mmHg 83%
    19:00 +15°C° 0,6 mm 1 m/S 759 mmHg 88%
    20:00 +15°C° 0,3 mm 2 m/S 759 mmHg 89%
    21:00 +14°C° 0,3 mm 2 m/S 759 mmHg 91%
    22:00 +14°C° 0,3 mm 2 m/S 759 mmHg 92%
    23:00 +13°C° 0 mm 2 m/S 759 mmHg 93%

    übermorgen, 21 Oktober, Samstag

    Zeit Temperatur Niederschläge Wind Luftdruck Luftfeuchtigkeit
    00:00 +13°C° 0 mm 2 m/S 759 mmHg 94%
    01:00 +12°C° 0 mm 2 m/S 759 mmHg 94%
    02:00 +12°C° 0 mm 2 m/S 759 mmHg 94%
    03:00 +10°C° 0 mm 2 m/S 759 mmHg 93%
    04:00 +10°C° 0 mm 2 m/S 759 mmHg 92%
    05:00 +10°C° 0 mm 2 m/S 759 mmHg 91%
    06:00 +11°C° 0 mm 1 m/S 759 mmHg 90%
    07:00 +11°C° 0 mm 1 m/S 759 mmHg 88%
    08:00 +12°C° 0 mm 1 m/S 759 mmHg 85%
    09:00 +13°C° 0 mm 1 m/S 759 mmHg 82%
    10:00 +14°C° 0 mm 2 m/S 759 mmHg 79%
    11:00 +15°C° 0 mm 2 m/S 759 mmHg 77%
    12:00 +16°C° 0 mm 2 m/S 758 mmHg 74%
    13:00 +17°C° 0 mm 2 m/S 758 mmHg 71%
    14:00 +17°C° 0 mm 2 m/S 758 mmHg 74%
    15:00 +17°C° 0 mm 2 m/S 758 mmHg 77%
    16:00 +17°C° 0 mm 2 m/S 757 mmHg 80%
    17:00 +16°C° 0,2 mm 2 m/S 757 mmHg 83%
    18:00 +15°C° 0,2 mm 2 m/S 757 mmHg 87%
    19:00 +14°C° 0,2 mm 3 m/S 757 mmHg 90%
    20:00 +15°C° 0,2 mm 2 m/S 757 mmHg 91%
    21:00 +15°C° 0,2 mm 2 m/S 757 mmHg 93%
    22:00 +15°C° 0,2 mm 2 m/S 757 mmHg 94%
    23:00 +14°C° 1,1 mm 3 m/S 757 mmHg 94%

    22 Oktober, Sonntag

    Zeit Temperatur Niederschläge Wind Luftdruck Luftfeuchtigkeit
    00:00 +13°C° 1,1 mm 3 m/S 757 mmHg 93%
    01:00 +13°C° 1,1 mm 3 m/S 757 mmHg 92%
    02:00 +13°C° 1 mm 3 m/S 757 mmHg 92%
    03:00 +12°C° 1 mm 3 m/S 757 mmHg 92%
    04:00 +12°C° 1 mm 3 m/S 757 mmHg 92%
    05:00 +11°C° 0 mm 3 m/S 757 mmHg 93%
    06:00 +10°C° 0 mm 3 m/S 758 mmHg 93%
    07:00 +10°C° 0 mm 3 m/S 758 mmHg 93%
    08:00 +11°C° 0 mm 3 m/S 758 mmHg 88%
    09:00 +11°C° 0 mm 3 m/S 758 mmHg 83%
    10:00 +12°C° 0 mm 3 m/S 758 mmHg 77%
    11:00 +13°C° 0 mm 4 m/S 758 mmHg 75%
    12:00 +13°C° 0 mm 4 m/S 758 mmHg 72%
    13:00 +13°C° 0 mm 4 m/S 758 mmHg 69%
    14:00 +13°C° 0 mm 4 m/S 758 mmHg 72%
    15:00 +12°C° 0 mm 3 m/S 758 mmHg 74%
    16:00 +12°C° 0 mm 3 m/S 758 mmHg 76%
    17:00 +11°C° 0 mm 3 m/S 758 mmHg 78%
    18:00 +10°C° 0 mm 2 m/S 759 mmHg 81%
    19:00 +9°C° 0 mm 2 m/S 759 mmHg 83%
    20:00 +9°C° 0 mm 2 m/S 759 mmHg 84%
    21:00 +9°C° 0 mm 2 m/S 759 mmHg 85%
    22:00 +8°C° 0 mm 2 m/S 759 mmHg 87%
    23:00 +8°C° 0 mm 2 m/S 759 mmHg 88%

    23 Oktober, Montag

    Zeit Temperatur Niederschläge Wind Luftdruck Luftfeuchtigkeit
    00:00 +8°C° 0 mm 2 m/S 760 mmHg 89%
    01:00 +7°C° 0 mm 2 m/S 760 mmHg 90%
    02:00 +7°C° 0 mm 2 m/S 760 mmHg 90%
    03:00 +7°C° 0 mm 2 m/S 760 mmHg 91%
    04:00 +6°C° 0 mm 2 m/S 760 mmHg 92%
    05:00 +6°C° 0 mm 2 m/S 760 mmHg 92%
    06:00 +6°C° 0 mm 2 m/S 760 mmHg 93%
    07:00 +7°C° 0 mm 1 m/S 761 mmHg 93%
    08:00 +7°C° 0 mm 2 m/S 761 mmHg 89%
    09:00 +8°C° 0 mm 2 m/S 761 mmHg 84%
    10:00 +9°C° 0 mm 2 m/S 762 mmHg 79%
    11:00 +10°C° 0 mm 2 m/S 762 mmHg 77%
    12:00 +12°C° 0 mm 2 m/S 762 mmHg 75%
    13:00 +13°C° 0 mm 2 m/S 762 mmHg 73%
    14:00 +13°C° 0 mm 2 m/S 763 mmHg 76%
    15:00 +12°C° 0 mm 1 m/S 763 mmHg 79%
    16:00 +12°C° 0 mm 1 m/S 763 mmHg 82%
    17:00 +11°C° 0 mm 1 m/S 764 mmHg 84%
    18:00 +11°C° 0 mm 1 m/S 764 mmHg 87%
    19:00 +11°C° 0 mm 1 m/S 765 mmHg 89%
    20:00 +10°C° 0 mm 1 m/S 765 mmHg 90%
    21:00 +10°C° 0 mm 1 m/S 765 mmHg 91%
    22:00 +10°C° 0 mm 1 m/S 765 mmHg 92%
    23:00 +8°C° 0 mm 0 m/S 766 mmHg 92%

    24 Oktober, Dienstag

    Zeit Temperatur Niederschläge Wind Luftdruck Luftfeuchtigkeit
    00:00 +8°C° 0 mm 0 m/S 766 mmHg 93%
    01:00 +8°C° 0 mm 0 m/S 766 mmHg 93%
    02:00 +7°C° 0 mm 0 m/S 766 mmHg 94%
    03:00 +7°C° 0 mm 0 m/S 767 mmHg 94%
    04:00 +7°C° 0 mm 0 m/S 767 mmHg 94%
    05:00 +7°C° 0 mm 0 m/S 767 mmHg 95%
    06:00 +7°C° 0 mm 0 m/S 767 mmHg 95%
    07:00 +7°C° 0 mm 0 m/S 767 mmHg 95%
    08:00 +9°C° 0 mm 1 m/S 768 mmHg 90%
    09:00 +10°C° 0 mm 1 m/S 768 mmHg 86%
    10:00 +12°C° 0 mm 1 m/S 768 mmHg 81%
    11:00 +13°C° 0 mm 1 m/S 768 mmHg 77%
    12:00 +14°C° 0 mm 1 m/S 768 mmHg 73%
    13:00 +14°C° 0 mm 1 m/S 768 mmHg 69%
    14:00 +14°C° 0 mm 1 m/S 768 mmHg 71%
    15:00 +14°C° 0 mm 1 m/S 768 mmHg 73%
    16:00 +13°C° 0 mm 1 m/S 769 mmHg 75%
    17:00 +12°C° 0 mm 1 m/S 769 mmHg 78%
    18:00 +10°C° 0 mm 2 m/S 769 mmHg 82%
    19:00 +9°C° 0 mm 2 m/S 770 mmHg 86%
    20:00 +9°C° 0 mm 2 m/S 770 mmHg 87%
    21:00 +8°C° 0 mm 2 m/S 770 mmHg 89%
    22:00 +8°C° 0 mm 2 m/S 770 mmHg 91%
    23:00 +8°C° 0 mm 2 m/S 770 mmHg 92%
    Mehr zeigen